Content
SEND FEEDBACK

Daily
Averages
Monthly
Summary
French Polynesia

PAPEETE, FRENCH POLYNESIA


Home > Oceania > French Polynesia
Elevation: 7 feet     Latitude: 17 33S     Longitude: 149 36W

WEATHER
 
SELECT A DAY
Number of Records: 215,884;   Date Range: 6/30/96 - 11/21/14
 
SHARE

PRINT THIS DATA

[ ← Previous Day ]
WEATHER ALMANAC - APRIL 3, 2013
[ Next Day → ]
[ °C ]   °F
Weather ElementAverageHighLow
Temperature83.8 °F90 °F (2:00 pm)77 °F (3:00 am)
Dewpoint72.7 °F77 °F (11:30 am)68 °F (2:30 am)
Humidity68.3 %79 % (10:00 pm)55 % (2:00 pm)
Barometer29.88 in29.94 in (8:00 am)29.83 in (2:00 pm)
Wind Speed6.7 mph29.1 mph (11:00 am)
Weather ElementAverage
Visibility8 mi
Wind DirectionNE (48.3 °)

Weather ElementTotal
Precipitation---
Cooling Degree Days18.5 (Base 65)
Growing Degree Days33.5 (Base 50)
Averaged from 55 records on April 3, 2013
WEATHER CONDITIONS BREAKOUT
WIND DIRECTION BREAKOUT
WEATHER BY HOUR - APRIL 3, 2013
[ °C ]   °F
Local TimeTemperatureDewpointHumidityBarometerVisibilityWind DirectionWind SpeedGust SpeedPrecipitationEventsConditions
12:30 AM78.8 °F71.6 °F78 %29.89 in6.2 miVariable1.2 mphScattered Clouds
1:18 AM78.8 °F69.8 °F74 %29.89 in6.2 miVariable3.5 mphMostly Cloudy
1:30 AM78.8 °F69.8 °F74 %29.89 in6.2 miVariable3.5 mphMostly Cloudy
2:00 AM78.0 °F70.0 °F69 %29.88 in12.0 miEast (90°)1.2 mphScattered Clouds
2:00 AM78.8 °F69.8 °F74 %29.86 in6.2 miVariable1.2 mphMostly Cloudy
2:30 AM78.8 °F68.0 °F69 %29.86 in6.2 miVariable2.3 mphMostly Cloudy
3:00 AM77.0 °F68.0 °F74 %29.86 in6.2 miSouth (170°)3.5 mphMostly Cloudy
3:30 AM77.0 °F68.0 °F74 %29.86 in6.2 miVariable2.3 mph
4:00 AM78.8 °F69.8 °F74 %29.86 in6.2 miSSE (160°)4.6 mph
4:30 AM78.8 °F69.8 °F74 %29.86 in6.2 miSouth (170°)4.6 mph
5:00 AM79.0 °F70.0 °F66 %29.89 in37.0 miSouth (170°)8.9 mphClear
5:00 AM78.8 °F69.8 °F74 %29.89 in6.2 miSouth (170°)4.6 mph
5:30 AM78.8 °F69.8 °F74 %29.89 in6.2 miVariable3.5 mph
6:00 AM78.8 °F69.8 °F74 %29.89 in6.2 miEast (90°)3.5 mphMostly Cloudy
6:30 AM77.0 °F69.8 °F78 %29.89 in6.2 miVariable3.5 mphMostly Cloudy
7:00 AM80.6 °F71.6 °F74 %29.92 in6.2 miCalmMostly Cloudy
7:30 AM82.4 °F71.6 °F70 %29.92 in6.2 miVariable1.2 mphMostly Cloudy
8:00 AM84.0 °F71.0 °F58 %29.94 in19.0 miCalmPartly Cloudy
8:00 AM84.2 °F71.6 °F66 %29.92 in6.2 miCalmMostly Cloudy
8:30 AM86.0 °F73.4 °F66 %29.92 in6.2 miVariable3.5 mphMostly Cloudy
9:00 AM87.8 °F75.2 °F66 %29.92 in6.2 miNE (40°)11.5 mphMostly Cloudy
9:30 AM87.8 °F73.4 °F62 %29.92 in6.2 miNE (40°)13.8 mphMostly Cloudy
10:00 AM87.8 °F75.2 °F66 %29.92 in6.2 miNE (40°)13.8 mphMostly Cloudy
10:30 AM89.6 °F75.2 °F62 %29.92 in6.2 miNE (40°)12.7 mphMostly Cloudy
11:00 AM89.0 °F76.0 °F57 %29.92 in19.0 miNE (40°)29.1 mphScattered Clouds
11:00 AM89.6 °F75.2 °F62 %29.92 in6.2 miNE (40°)15.0 mphMostly Cloudy
11:30 AM89.6 °F77.0 °F66 %29.89 in6.2 miNE (40°)16.1 mphMostly Cloudy
12:00 PM89.6 °F75.2 °F62 %29.89 in6.2 miNE (50°)13.8 mphScattered Clouds
12:30 PM89.6 °F77.0 °F66 %29.86 in6.2 miNE (40°)16.1 mphScattered Clouds
1:00 PM89.6 °F77.0 °F66 %29.86 in6.2 miNE (40°)13.8 mphScattered Clouds
1:30 PM89.6 °F77.0 °F66 %29.86 in6.2 miNE (40°)13.8 mphScattered Clouds
2:00 PM90.0 °F76.0 °F55 %29.86 in19.0 miNE (40°)13.8 mphScattered Clouds
2:00 PM89.6 °F75.2 °F62 %29.83 in6.2 miNE (40°)13.8 mphMostly Cloudy
2:30 PM89.6 °F75.2 °F62 %29.83 in6.2 miNE (40°)11.5 mphMostly Cloudy
3:00 PM89.6 °F75.2 °F62 %29.83 in6.2 miNE (40°)10.4 mphMostly Cloudy
3:30 PM89.6 °F75.2 °F62 %29.83 in6.2 miNE (40°)10.4 mphMostly Cloudy
4:00 PM87.8 °F75.2 °F66 %29.83 in6.2 miNE (40°)9.2 mphMostly Cloudy
4:30 PM87.8 °F75.2 °F66 %29.83 in6.2 miNNE (30°)8.1 mphMostly Cloudy
5:00 PM87.0 °F75.0 °F60 %29.86 in19.0 miNE (40°)6.9 mphScattered Clouds
5:00 PM87.8 °F75.2 °F66 %29.86 in6.2 miNE (40°)6.9 mphMostly Cloudy
5:30 PM86.0 °F75.2 °F70 %29.86 in6.2 miNE (50°)6.9 mphMostly Cloudy
6:00 PM86.0 °F75.2 °F70 %29.86 in6.2 miNE (50°)6.9 mphMostly Cloudy
6:30 PM84.2 °F73.4 °F70 %29.89 in6.2 miNE (50°)5.8 mphScattered Clouds
7:00 PM84.2 °F71.6 °F66 %29.89 in6.2 miENE (60°)4.6 mphScattered Clouds
7:30 PM84.2 °F71.6 °F66 %29.89 in6.2 miEast (80°)4.6 mphScattered Clouds
8:00 PM83.0 °F72.0 °F61 %29.91 in12.0 miEast (90°)6.7 mphScattered Clouds
8:00 PM82.4 °F71.6 °F70 %29.89 in6.2 miEast (90°)3.5 mphPartly Cloudy
8:30 PM82.4 °F71.6 °F70 %29.89 in6.2 miVariable3.5 mphPartly Cloudy
9:00 PM82.4 °F71.6 °F70 %29.92 in6.2 miCalmPartly Cloudy
9:30 PM80.6 °F71.6 °F74 %29.92 in6.2 miVariable2.3 mphPartly Cloudy
10:00 PM80.6 °F73.4 °F79 %29.92 in6.2 miSouth (180°)4.6 mphPartly Cloudy
10:30 PM80.6 °F71.6 °F74 %29.92 in6.2 miVariable2.3 mphPartly Cloudy
11:00 PM80.0 °F71.0 °F66 %29.91 in12.0 miCalmScattered Clouds
11:00 PM80.6 °F71.6 °F74 %29.89 in6.2 miCalmPartly Cloudy
11:30 PM78.8 °F71.6 °F78 %29.89 in6.2 miEast (90°)2.3 mphPartly Cloudy
Hourly data recorded from NTAA, located miles away from Papeete, French Polynesia







STORIES FROM OUR PARTNERS